Probability
0 0 0 0 0 0 0 0 0 0 0 0 0 0 0 0 0 0 0 0 0 0 0 0 0 0 0 0 0 0 0 0 0 0 0 0 0 0
0 0 0 0 0 0 0 0 0 0 0 0 0 0 0 0 0 0 0 0 0 0 0 0 0 0 0 0 0 0 0 0 0 0 0 0 0 0
0 0 0 0 0 0 0 0 0 0 0 0 0 0 0 0 0 0 0 0 0 0 0 0 0 0 0 0 0 0 0 0 0 0 0 0 0 0
0 0 0 0 0 0 0 0 0 0 0 0 0 0 0 0 0 0 0 0 0 0 0 0 0 0 0 0 0 0 0 0 0 0 0 0 0 0
0 0 0 0 0 0 0 0 0 0 0 0 0 0 0 0 0 0 0 0 0 0 0 0 0 0 0 0 0 0 0 0 0 0 0 0 0 0
0 0 0 0 0 0 0 0 0 0 0 0 0 0 0 0 0 0 0 0 0 0 0 0 0 0 0 0 0 0 0 0 0 0 0 0 0 0
0 0 0 0 0 0 0 0 0 0 0 0 0 0 0 0 0 0 0 0 0 0 0 0 0 0 0 0 0 0 0 0 0 0 0 0 0 0
0 0 0 0 0 0 0 0 0 0 0 0 0 0 0 0 0 0 0 0 0 0 0 0 0 0 0 0 0 0 0 0 0 0 0 0 0 0
0 0 0 0 0 0 0 0 0 0 0 0 0 0 0 0 0 0 0 0 0 0 0 0 0 0 0 0 0 0 0 0 0 0 0 0 0 0
0 0 0 0 0 0 0 0 0 0 0 0 0 0 0 0 0 0 0 0 0 0 0 0 0 0 0 0 0 0 0 0 0 0 0 0 0 0
0 0 0 0 0 0 0 0 0 0 0 0 0 0 0 0 0 0 0 0 0 0 0 0 0 0 0 0 0 0 0 0 0 0 0 0 0 0
0 0 0 0 0 0 0 0 0 0 0 0 0 0 0 0 0 0 0 0 0 0 0 0 0 0 0 0 0 0 0 0 0 0 0 0 0 0
0 0 0 0 0 0 0 0 0 0 0 0 0 0 0 0 0 0 0 0 0 0 0 0 0 0 0 0 0 0 0 0 0 0 0 0 0 0
0 0 0 0 0 0 0 0 0 0 0 0 0 0 0 0 0 0 0 0 0 0 0 0 0 0 0 0 0 0 0 0 0 0 0 0 0 0
0 0 0 0 0 0 0 0 0 0 0 0 0 0 0 0 0 0 0 0 0 0 0 0 0 0 0 0 0 0 0 0 0 0 0 0 0 0
0 0 0 0 0 0 0 0 0 0 0 0 0 0 0 0 0 0 0 0 0 0 0 0 0 0 0 0 0 0 0 0 0 0 0 0 0 0
0 0 0 0 0 0 0 0 0 0 0 0 0 0 0 0 0 0 0 0 0 0 0 0 0 0 0 0 0 0 0 0 0 0 0 0 0 0
0 0 0 0 0 0 0 0 0 0 0 0 0 0 0 0 0 0 0 0 0 0 0 0 0 0 0 0 0 0 0 0 0 0 0 0 0 0
0 0 0 0 0 0 0 0 0 0 0 0 0 0 0 0 0 0 0 0 0 0 0 0 0 0 0 0 0 0 0 0 0 0 0 0 0 0
0 0 0 0 0 0 0 0 0 0 0 0 0 0 0 0 0 0 0 0 0 0 0 0 0 0 0 0 0 0 0 0 0 0 0 0 0 0
0 0 0 0 0 0 0 0 0 0 0 0 0 0 0 0 0 0 0 0 0 0 0 0 0 0 0 0 0 0 0 0 0 0 0 0 0 0
0 0 0 0 0 0 0 0 0 0 0 0 0 0 0 0 0 0 0 0 0 0 0 0 0 0 0 0 0 0 0 0 0 0 0 0 0 0
0 0 0 0 0 0 0 0 0 0 0 0 0 0 0 0 0 0 0 0 0 0 0 0 0 0 0 0 0 0 0 0 0 0 0 0 0 0
Height
5643 5645 5647 5649 5651 5653 5655 5657 5659 5661 5663 5664 5664 5664 5664 5665 5666 5667 5668 5670 5671 5672 5674 5675 5676 5678 5679 5681 5681 5683 5685 5687 5689 5691 5693 5695 5697 5699
5629 5631 5633 5635 5637 5639 5641 5642 5644 5646 5648 5650 5650 5650 5650 5651 5652 5653 5653 5655 5656 5657 5658 5660 5661 5662 5663 5665 5666 5667 5669 5671 5673 5675 5677 5679 5682 5684
5615 5617 5619 5621 5623 5624 5626 5627 5629 5630 5633 5635 5635 5636 5636 5636 5637 5637 5638 5639 5640 5641 5642 5644 5645 5646 5647 5649 5650 5652 5653 5655 5657 5659 5661 5663 5666 5668
5601 5602 5604 5606 5608 5610 5611 5612 5614 5615 5617 5619 5620 5620 5621 5621 5622 5622 5623 5623 5624 5625 5626 5627 5628 5629 5631 5632 5633 5635 5636 5638 5640 5642 5644 5647 5649 5650
5586 5587 5589 5591 5593 5594 5596 5597 5598 5599 5600 5602 5604 5604 5605 5605 5605 5606 5606 5607 5608 5609 5609 5610 5611 5612 5613 5615 5616 5618 5619 5621 5623 5625 5626 5628 5630 5632
5571 5572 5574 5575 5577 5578 5580 5581 5582 5583 5584 5585 5587 5588 5588 5588 5588 5589 5590 5590 5591 5591 5592 5593 5594 5595 5596 5597 5599 5600 5601 5602 5604 5606 5608 5610 5612 5614
5555 5557 5558 5560 5561 5562 5564 5565 5565 5566 5567 5568 5569 5570 5571 5571 5571 5572 5572 5573 5573 5574 5575 5576 5577 5578 5578 5579 5580 5581 5582 5584 5585 5587 5589 5591 5593 5595
5539 5541 5542 5544 5545 5546 5547 5548 5549 5550 5551 5551 5552 5553 5554 5554 5554 5554 5554 5555 5557 5558 5557 5558 5558 5559 5560 5561 5562 5563 5564 5565 5567 5568 5570 5572 5574 5576
5523 5524 5526 5527 5528 5529 5530 5531 5532 5533 5534 5534 5535 5536 5536 5536 5536 5536 5535 5536 5538 5538 5538 5541 5540 5541 5542 5542 5543 5544 5545 5546 5548 5549 5551 5553 5554 5556
5506 5508 5509 5510 5511 5512 5513 5515 5515 5516 5516 5517 5518 5519 5518 5518 5517 5518 5518 5518 5519 5519 5519 5522 5523 5523 5524 5524 5524 5525 5526 5527 5529 5530 5531 5533 5534 5536
5490 5491 5492 5493 5495 5495 5497 5498 5499 5499 5499 5499 5500 5500 5500 5500 5500 5500 5500 5500 5502 5503 5501 5503 5505 5505 5506 5507 5507 5507 5508 5508 5509 5511 5512 5513 5515 5516
5473 5474 5475 5476 5477 5478 5479 5481 5482 5482 5482 5482 5482 5483 5482 5482 5482 5483 5483 5484 5484 5486 5485 5485 5486 5485 5488 5490 5490 5489 5489 5490 5490 5492 5493 5494 5495 5496
5456 5457 5458 5459 5460 5461 5462 5464 5465 5465 5465 5466 5466 5466 5466 5466 5467 5467 5467 5467 5468 5469 5469 5468 5469 5468 5469 5472 5474 5472 5471 5472 5472 5473 5474 5475 5476 5477
5440 5441 5441 5442 5443 5444 5445 5446 5447 5448 5448 5449 5450 5450 5451 5451 5451 5451 5451 5451 5451 5452 5452 5451 5452 5452 5452 5454 5456 5456 5455 5454 5455 5456 5457 5457 5458 5458
5424 5424 5425 5425 5426 5427 5428 5429 5430 5431 5432 5433 5434 5435 5435 5435 5435 5435 5435 5435 5436 5435 5435 5435 5435 5435 5435 5436 5438 5438 5438 5438 5437 5438 5439 5439 5440 5440
5409 5409 5409 5409 5410 5411 5412 5412 5413 5414 5415 5417 5418 5419 5419 5419 5420 5420 5420 5420 5420 5420 5419 5418 5418 5418 5419 5420 5420 5421 5420 5420 5421 5420 5421 5422 5422 5422
5394 5394 5394 5394 5394 5395 5395 5396 5397 5398 5399 5400 5402 5402 5403 5403 5404 5404 5404 5404 5404 5405 5404 5403 5402 5402 5402 5403 5404 5404 5403 5403 5403 5403 5403 5405 5405 5404
5380 5380 5380 5379 5379 5379 5380 5381 5381 5382 5383 5384 5386 5387 5387 5388 5388 5388 5388 5388 5389 5389 5389 5388 5387 5387 5387 5388 5388 5387 5387 5387 5387 5386 5386 5387 5389 5388
5367 5366 5365 5365 5364 5364 5364 5365 5366 5366 5367 5368 5370 5371 5372 5372 5372 5373 5373 5373 5373 5374 5374 5373 5372 5371 5372 5373 5374 5371 5370 5370 5370 5370 5370 5370 5371 5372
5354 5352 5352 5351 5350 5350 5350 5350 5351 5351 5352 5353 5354 5355 5356 5356 5357 5357 5357 5357 5358 5358 5358 5358 5357 5356 5356 5357 5358 5358 5355 5354 5354 5354 5354 5354 5355 5356
5341 5340 5339 5338 5337 5337 5336 5336 5337 5337 5337 5338 5339 5340 5340 5341 5341 5342 5342 5342 5342 5343 5343 5344 5343 5342 5341 5341 5342 5343 5342 5340 5339 5339 5339 5339 5340 5342
5330 5328 5327 5326 5325 5324 5324 5324 5324 5324 5324 5324 5324 5325 5325 5326 5326 5327 5327 5327 5328 5328 5328 5328 5328 5327 5327 5327 5327 5328 5328 5328 5326 5325 5325 5325 5325 5327
5319 5318 5316 5315 5314 5313 5312 5312 5312 5311 5311 5311 5311 5311 5311 5311 5312 5312 5312 5313 5313 5313 5313 5313 5314 5313 5313 5313 5313 5314 5315 5314 5314 5314 5314 5312 5312 5313
Wind_Speed
51 51 51 51 51 51 51 51 51 50 50 49 50 50 51 52 52 53 53 54 53 53 54 53 53 54 54 54 53 53 53 54 54 54 54 54 54 54
51 52 52 52 52 52 53 53 53 53 51 51 52 52 52 53 53 53 54 54 54 54 55 55 54 55 55 55 55 55 55 55 55 55 55 56 56 55
53 53 53 53 53 53 54 54 54 55 54 53 53 53 54 54 54 55 55 55 55 55 55 55 55 56 56 55 56 56 56 56 56 56 56 57 57 57
54 54 54 54 55 55 55 55 56 56 56 55 55 55 55 55 56 56 56 56 56 56 56 56 57 58 58 58 58 57 58 58 58 58 59 59 59 59
56 55 55 56 56 56 56 56 56 57 57 56 56 56 56 57 57 57 57 57 58 58 58 58 58 59 59 59 60 60 60 60 60 60 60 61 61 61
56 56 56 57 56 56 56 56 57 57 57 57 58 57 58 58 58 58 58 59 59 59 59 60 60 60 60 60 60 61 61 61 61 61 61 62 62 62
56 56 57 57 57 57 57 57 57 58 58 58 58 59 58 59 59 59 60 60 60 60 61 61 61 60 60 60 61 61 62 62 62 62 63 63 63 63
57 58 58 57 57 57 58 58 58 58 58 58 58 59 59 60 60 61 61 61 61 61 61 61 62 61 61 61 62 62 62 63 63 63 64 63 63 64
58 59 59 58 58 58 58 58 58 59 59 58 58 58 58 59 60 60 61 61 61 60 61 61 62 61 61 61 62 62 62 62 63 63 63 63 64 64
57 58 58 58 58 59 59 58 58 58 58 58 58 58 58 58 58 59 59 58 58 58 59 59 60 60 61 61 62 62 62 62 62 62 63 63 63 63
56 57 57 57 58 59 59 59 58 57 58 58 58 58 57 58 57 56 57 57 56 56 57 57 58 59 59 60 61 61 61 62 62 62 62 62 62 62
55 56 57 57 57 57 58 57 57 56 57 57 57 56 56 56 56 55 55 55 54 54 55 56 56 57 57 57 58 58 59 60 61 61 61 62 61 61
53 54 56 56 57 56 56 56 56 56 56 55 55 55 55 54 54 54 54 54 53 53 53 54 54 55 56 56 56 57 57 58 59 59 60 60 60 61
52 53 54 55 55 55 55 55 55 55 55 54 54 54 55 54 54 54 54 54 53 52 53 54 53 53 54 55 55 56 56 57 57 57 58 58 59 59
50 51 52 52 53 54 54 54 54 55 54 54 54 54 54 54 54 54 54 54 53 53 52 53 54 54 54 54 53 54 55 56 56 57 57 57 58 58
49 49 49 50 51 52 53 53 54 54 53 53 53 53 53 53 53 54 53 53 54 53 52 52 52 52 52 52 52 53 54 55 55 56 56 56 56 57
47 47 47 48 49 50 51 52 52 53 53 53 53 53 53 53 53 53 53 52 52 52 51 51 51 51 51 52 52 52 53 54 54 55 56 56 56 56
45 45 46 46 47 48 49 49 50 51 51 52 52 52 52 51 52 52 52 52 51 51 51 50 50 50 49 49 50 51 52 53 53 54 54 54 54 55
43 43 44 45 45 46 47 47 48 49 50 50 51 51 50 50 50 50 51 51 50 50 50 49 49 49 48 48 48 50 50 50 51 52 52 52 52 51
40 41 42 42 43 44 45 45 46 47 48 49 49 49 49 49 50 50 50 50 50 49 49 49 49 49 49 48 47 47 48 49 49 50 50 50 49 48
37 37 38 38 39 40 41 42 43 44 45 46 47 48 48 48 49 49 49 49 49 49 48 48 48 47 47 46 46 45 45 46 47 47 47 46 45 45
34 35 36 36 36 37 38 39 40 41 42 43 44 45 46 46 47 47 47 47 47 47 47 47 46 46 45 45 44 43 43 43 43 43 43 42 43 42
33 34 34 35 35 35 36 36 37 38 40 41 42 42 43 43 44 44 45 45 45 45 44 44 44 44 43 42 42 41 41 40 40 40 40 41 41 41
Wind_Direction
260 260 261 261 261 262 262 263 263 263 264 266 267 268 267 266 266 265 265 265 265 264 264 264 265 265 264 264 264 263 263 262 262 261 261 260 260 260
260 261 261 261 262 262 263 264 264 265 266 266 267 269 269 268 268 267 266 265 265 265 265 265 265 265 265 265 265 264 263 263 262 261 261 261 261 261
262 262 262 262 262 263 264 265 265 266 266 267 267 268 269 269 268 268 267 267 266 266 266 266 266 265 265 265 265 264 263 263 262 262 262 261 261 261
262 262 262 262 262 263 265 265 266 267 267 267 268 268 268 268 267 267 268 267 266 266 266 266 266 265 265 265 264 264 264 263 263 262 262 262 261 261
261 262 262 262 263 264 265 266 267 267 267 267 268 268 268 269 268 267 267 267 266 266 266 266 266 266 266 265 264 264 264 264 264 264 263 262 262 262
262 262 262 263 264 265 265 266 267 267 268 267 267 268 269 269 268 267 267 268 267 267 266 265 265 265 265 265 265 264 264 264 264 263 263 263 263 262
262 263 264 264 265 265 266 266 267 268 268 268 268 268 268 269 269 269 268 268 268 267 266 266 265 265 265 265 265 264 264 264 264 263 263 263 263 263
262 263 264 264 265 265 266 266 267 268 269 269 269 269 268 269 269 270 269 268 267 267 266 266 266 266 266 265 265 265 264 264 264 264 264 264 264 264
264 265 265 265 265 265 265 266 268 268 269 269 269 269 269 269 270 270 270 269 268 267 267 266 266 266 266 266 265 265 265 264 264 265 265 264 264 264
265 265 265 265 265 265 266 266 267 267 268 269 269 269 269 270 270 270 269 269 269 267 268 267 266 266 265 265 265 265 265 265 265 265 264 265 264 264
265 265 265 265 265 266 266 266 267 267 268 268 268 268 269 270 270 270 269 269 269 268 268 268 268 267 265 265 266 266 266 265 265 265 264 265 265 265
266 266 265 265 265 266 266 266 266 267 268 269 268 268 268 269 270 270 270 270 269 268 269 269 269 268 266 265 266 266 266 266 266 265 265 265 266 265
267 266 266 265 265 266 266 266 266 266 267 268 268 267 267 268 269 270 270 271 270 269 270 270 270 269 268 266 265 267 267 267 267 266 266 267 267 267
268 267 266 266 265 265 265 265 266 266 266 266 266 267 267 268 269 270 271 271 270 269 270 271 272 271 270 269 268 268 268 267 267 267 267 267 267 268
269 268 267 267 266 265 265 266 266 266 266 266 266 267 267 268 269 270 270 271 270 270 270 271 271 271 271 270 270 269 268 267 268 268 267 268 268 268
271 270 269 268 266 265 264 265 266 266 266 266 266 266 266 267 267 269 269 270 270 269 270 271 271 271 271 271 270 270 269 268 268 268 267 267 267 267
271 270 270 269 267 266 265 265 265 265 265 265 265 265 266 266 267 268 269 269 270 270 270 272 272 272 272 272 271 270 270 270 269 269 268 267 267 268
273 272 271 271 269 268 267 266 265 264 264 264 265 265 265 266 266 267 269 269 270 270 270 271 271 272 273 273 272 272 271 271 271 271 270 269 269 269
274 273 272 271 269 268 268 267 265 264 264 265 265 266 266 266 267 268 268 269 270 270 270 270 271 272 273 273 272 273 273 272 271 270 270 269 269 269
276 275 274 273 270 269 269 268 267 266 266 266 266 266 266 267 267 268 269 269 270 271 270 270 271 271 272 273 272 273 273 273 272 271 270 269 269 269
278 276 275 275 273 271 270 269 269 268 268 268 268 268 267 267 268 268 269 269 270 271 271 270 270 271 272 272 272 272 272 272 272 271 270 269 268 267
280 278 278 277 275 274 273 272 271 270 270 270 269 269 269 268 268 268 269 269 270 270 270 270 270 270 271 271 271 271 270 270 271 271 270 269 268 267
281 280 279 278 277 276 274 274 274 273 272 271 271 270 269 269 268 268 269 269 270 270 269 269 269 270 270 270 270 270 271 270 270 269 269 268 268 267